Weather History for ORANGE GROVE, NALF, TX

Change the Weather History Date:

Sunday, February 16, 2014

  Actual Average (KALI) Record (KALI)
Temperature  
Mean Temperature 72 °F -  
Max Temperature 86 °F 71 °F 88 °F (2006)
Min Temperature 57 °F 49 °F 28 °F (2007)
Cooling Degree Days 6    
Growing Degree Days 22 (Base 50)    
Moisture  
Dew Point 61 °F    
Average Humidity 81    
Maximum Humidity 100    
Minimum Humidity 38    
Precipitation  
Precipitation 0.00 in - - ()
Sea Level Pressure  
Sea Level Pressure 29.98 in    
Wind  
Wind Speed 10 mph (SSE)    
Max Wind Speed 20 mph    
Max Gust Speed 26 mph    
Visibility 6 miles    
Events Fog    
Averages and records for this station are not official NWS values.
T = Trace of Precipitation, MM = Missing Value Source: NWS Daily Summary

Daily Weather History Graph

Daily Weather History Graph

Search for Another Location

Airport:

Trip Planner

Search our weather history database for the weather conditions in past years. The results will help you decide how hot, cold, wet, or windy it might be!

Date:

Astronomy

Feb. 16, 2014 Rise Set
Actual Time 7:08 AM CST 6:24 PM CST
Civil Twilight 6:44 AM CST 6:48 PM CST
Nautical Twilight 6:17 AM CST 7:15 PM CST
Astronomical Twilight 5:50 AM CST 7:42 PM CST
Moon 8:07 PM CST (2/16) 7:51 AM CST (2/16)
Length of Visible Light 12h 03m
Length of Day
11h 15m
Full, 97% of the Moon is Illuminated
Feb 16
Full
Feb 22
Last Quarter
Mar 1
New
Mar 8
First Quarter
Mar 16
Full

Hourly Weather History & Observations

Time (CST) Temp. Heat Index Dew Point Humidity Pressure Visibility Wind Dir Wind Speed Gust Speed Precip Events Conditions
12:29 AM 59.0 °F - 59.0 °F 100% 30.05 in 2.0 mi South 6.9 mph - N/A   Partly Cloudy
12:37 AM 59.0 °F - 59.0 °F 100% 30.04 in 1.0 mi South 5.8 mph - N/A   Mist
12:45 AM 57.9 °F - 57.9 °F 100% 30.04 in 0.5 mi South 4.6 mph - N/A Fog Fog
12:56 AM 57.9 °F - 57.9 °F 100% 29.99 in 0.2 mi SSE 3.5 mph - N/A Fog Fog
1:56 AM 59.0 °F - 57.9 °F 96% 29.98 in 0.2 mi SE 3.5 mph - N/A Fog Fog
2:56 AM 60.1 °F - 59.0 °F 96% 29.97 in 0.2 mi SE 5.8 mph - N/A Fog Fog
3:56 AM 60.1 °F - 60.1 °F 100% 29.96 in 2.0 mi SE 8.1 mph - N/A   Overcast
4:04 AM 61.0 °F - 60.1 °F 97% 30.02 in 4.0 mi SSE 9.2 mph - N/A   Overcast
4:56 AM 62.1 °F - 61.0 °F 96% 29.96 in 3.0 mi South 10.4 mph - N/A   Overcast
5:52 AM 62.6 °F - 62.6 °F 100% 30.01 in 5.0 mi South 10.4 mph - N/A   Overcast
5:56 AM 63.0 °F - 62.1 °F 97% 29.96 in 5.0 mi South 11.5 mph - N/A   Overcast
6:56 AM 64.0 °F - 62.1 °F 93% 29.96 in 5.0 mi South 10.4 mph - N/A   Overcast
7:20 AM 64.9 °F - 62.1 °F 90% 30.03 in 6.0 mi South 12.7 mph - N/A   Overcast
7:56 AM 66.0 °F - 62.1 °F 87% 29.99 in 4.0 mi South 13.8 mph - N/A   Overcast
8:56 AM 66.9 °F - 63.0 °F 87% 30.01 in 4.0 mi South 13.8 mph - N/A   Overcast
9:56 AM 69.1 °F - 63.0 °F 81% 30.01 in 5.0 mi South 16.1 mph - N/A   Haze
10:56 AM 70.0 °F - 63.0 °F 78% 30.02 in 6.0 mi South 12.7 mph - N/A   Haze
11:15 AM 70.0 °F - 62.1 °F 76% 30.08 in 6.0 mi South 16.1 mph - N/A   Haze
11:56 AM 73.9 °F - 61.0 °F 64% 30.01 in 9.0 mi South 15.0 mph - N/A   Overcast
12:21 PM 77.0 °F - 61.0 °F 58% 30.05 in 10.0 mi South 16.1 mph 25.3 mph N/A   Scattered Clouds
12:56 PM 80.1 °F 80.9 °F 60.1 °F 50% 29.97 in 10.0 mi SSE 17.3 mph 24.2 mph N/A   Clear
1:56 PM 82.0 °F 82.4 °F 60.1 °F 47% 29.93 in 10.0 mi South 13.8 mph 23.0 mph N/A   Clear
2:56 PM 84.0 °F 83.5 °F 57.9 °F 41% 29.90 in 10.0 mi South 15.0 mph 26.5 mph N/A   Clear
3:56 PM 86.0 °F 85.0 °F 57.9 °F 38% 29.88 in 10.0 mi South 15.0 mph 21.9 mph N/A   Clear
4:56 PM 82.9 °F 83.7 °F 62.1 °F 49% 29.88 in 10.0 mi SE 19.6 mph - N/A   Clear
5:56 PM 78.1 °F - 63.0 °F 60% 29.90 in 10.0 mi SE 18.4 mph - N/A   Clear
6:56 PM 72.0 °F - 62.1 °F 71% 29.91 in 10.0 mi SSE 17.3 mph - N/A   Clear
7:56 PM 69.1 °F - 63.0 °F 81% 29.93 in 9.0 mi SSE 15.0 mph - N/A   Clear
8:56 PM 66.9 °F - 63.0 °F 87% 29.94 in 9.0 mi SSE 13.8 mph - N/A   Clear
9:56 PM 64.9 °F - 63.0 °F 93% 29.95 in 7.0 mi SSE 13.8 mph - N/A   Clear
10:47 PM 66.0 °F - 64.0 °F 93% 30.01 in 5.0 mi SSE 11.5 mph - N/A   Mostly Cloudy
10:56 PM 66.0 °F - 64.0 °F 93% 29.96 in 5.0 mi SSE 12.7 mph - N/A   Overcast
11:56 PM 66.9 °F - 64.0 °F 90% 29.94 in 8.0 mi South 9.2 mph - N/A   Overcast